Tracking 19564 objects as of 20-Mar-2019
HD Live streaming from Space Station
objects crossing your sky now

FENGYUN 1C DEB

Track FENGYUN 1C DEB now!
10-day predictions


NORAD ID: 30417
Int'l Code: 1999-025AEG
Perigee: 812.6 km
Apogee: 906.4 km
Inclination: 98.8 °
Period: 102.0 minutes
Semi major axis: 7230 km
RCS: 0.0259 m2 (small)
Launch date: May 10, 1999
Source: People's Republic of China (PRC)
Launch site: Taiyaun Space Center, China (TSC)

Note: This is SATELLITE DEBRIS
aabbcc
Your satellite tracking list
Your tracking list is empty




NASA's NSSDC Master Catalog

Two Line Element Set (TLE):
1 30417U 99025AEG 19077.59149319 +.00000062 +00000-0 +56565-4 0  9994
2 30417 098.7519 109.9466 0064899 294.1739 218.4333 14.12056503626366
Source of the keplerian elements: AFSPC